CZ-3B DEB, 40189

Orbit data source: Space-Track

CZ-3B DEB, 40189 is space debris in HEO originally from a launch on Mon, 19 Dec 2011 UTC launched from the Xichang Space Center, China (XSC). Debris objects in space refer to the collection of defunct objects orbiting the Earth. Examples of debris include non-operational satellites, rocket bodies, and fragments generated from explosions, collisions, or faulty payload assembly.

Loading next visibility...
Identifier
40189, 2011-077N
Orbit
HEO
Country
Flag of CNCN / PRC
Related business
Manufacturer
CALT
Mission
Spacecraft
Bus & Motor
Unknown
Mass
Unknown
Launch date (UTC)
2011-12-19 (14 years ago)
Launch vehicle
Unknown
Launch site
Xichang Space Center, China (XSC)
Object type
Payload
Rocket body
Debris
Shape & HBR
Unknown shape, 0.4 m
Radar Cross Section
Large (>1 m²)

Expand to show TLE details & history
Last TLE update: 1 day ago

TLE from 1 day ago
0 CZ-3B DEB
1 40189U 11077N   26129.60440856 -.00000592  00000-0 -22349-1 0  9990
2 40189  26.8404  26.9061 7371975 336.0662   2.6817  1.90436148 93593
Epoch: 2026-05-09T14:30Z
TLE epoch observation values (Epoch: 2026-05-09T14:30:20.899Z)
Latitude
0.00006°
Longitude
-58.11981°
Altitude
1,122.319 km
Speed
9.58 km/s
True Right ascension
01h 47m 32s
True Declination
0° 00' 00"
Sunlit
Object was in daylight at epoch
Visualization orbit readout
Latitude
Unknown
Longitude
Unknown
Altitude
Unknown
Speed
Unknown
Apparent Right ascension
Unknown
Apparent Declination
Unknown
Sunlit
N/A
Visualization observer readout
Local Sidereal Time
07:47:22
Azimuth
Unknown
Elevation
Unknown
Doppler factor
Unknown
Orbital elements
Apogee altitude
41,390.406 km
Perigee altitude
848.268 km
Semi-major axis
27,497.474 km
Eccentricity
0.7372
Inclination
26.8404°
RAAN
26.9061°
Arg. of periapsis
336.0662°
True anomaly
25.5006°
Mean anomaly
2.6817°
Eccentric anomaly
10.05949°
Mean motion
0.476 °/min
Orbital period
756.31 mins
BSTAR
-0.022349
Loading maneuver chart data...
Computing Atmospheric mass density...
Loading historical data...
Loading historical data...
Loading historical data...
Loading historical data...
Loading historical data...
Loading historical data...
Loading historical data...

Documentation

Showing up to 5 results
|